This demonstration page uses our WeatherBlox Daily Observations layout. Learn more.

Left ArrowRight Arrow

39.01783, -85.05884

Hourly Observations for November 29, 2021

Temp ( °F °C ) Dew Point ( °F °C ) Humidity (%) Winds ( mph kmh ) Pressure ( in mb ) Visibility ( mi km ) Precip ( " mm )
12:52 am 00:52 Mostly Clear 29 -1.7 19 -7.2 66 66 WNW 7 11 30.13 1020 10 16 N/A
1:52 am 01:52 Clear 29 -1.7 18 -7.8 63 63 WNW 8 13 30.13 1020 10 16 N/A
2:52 am 02:52 Clear 27 -2.8 17 -8.3 66 66 W 6 9 30.14 1021 10 16 N/A
3:52 am 03:52 Clear 25 -3.9 17 -8.3 72 72 W 7 11 30.15 1021 10 16 N/A
4:52 am 04:52 Clear 25 -3.9 17 -8.3 72 72 W 5 7 30.15 1021 10 16 N/A
5:52 am 05:52 Clear 25 -3.9 17 -8.3 72 72 W 3 6 30.17 1022 10 16 N/A
6:52 am 06:52 Mostly Cloudy 23 -5 18 -7.8 81 81 N N/A 30.17 1022 10 16 N/A
7:52 am 07:52 Mostly Cloudy 22 -5.6 17 -8.3 82 82 S 3 6 30.19 1022 10 16 N/A
8:52 am 08:52 Partly Cloudy 27 -2.8 21 -6.1 78 78 S 3 6 30.19 1022 10 16 N/A
9:52 am 09:52 Mostly Sunny 32 undefined 19 -7.2 59 59 SW 6 9 30.19 1023 10 16 N/A
10:52 am 10:52 Partly Cloudy 37 2.8 20 -6.7 50 50 S 6 9 30.20 1023 10 16 N/A
11:52 am 11:52 Mostly Sunny 40 4.4 17 -8.3 40 40 SW 9 15 30.17 1022 10 16 N/A
12:52 pm 12:52 Mostly Cloudy 41 5 17 -8.3 38 38 S 9 15 30.14 1021 10 16 N/A
1:52 pm 13:52 Mostly Cloudy 43 6.1 17 -8.3 35 35 S 8 13 30.11 1020 10 16 N/A
2:52 pm 14:52 Mostly Cloudy 43 6.1 15 -9.4 32 32 S 10 17 30.09 1019 10 16 N/A
3:52 pm 15:52 Mostly Cloudy 43 6.1 15 -9.4 32 32 S 10 17 30.07 1018 10 16 N/A
4:52 pm 16:52 Mostly Cloudy 41 5 15 -9.4 35 35 SSW 9 15 30.06 1018 10 16 N/A
5:52 pm 17:52 Mostly Cloudy 40 4.4 14 -10 35 35 SSW 7 11 30.06 1018 10 16 N/A
6:52 pm 18:52 Cloudy 40 4.4 15 -9.4 36 36 S 8 13 30.04 1017 10 16 N/A
7:52 pm 19:52 Cloudy 40 4.4 16 -8.9 38 38 S 14 22 30.00 1016 10 16 N/A
8:52 pm 20:52 Mostly Clear 39 3.9 15 -9.4 38 38 S 12 19 29.99 1016 10 16 N/A
9:52 pm 21:52 Mostly Clear 37 2.8 16 -8.9 42 42 S 9 15 29.98 1015 10 16 N/A
10:52 pm 22:52 Mostly Cloudy 37 2.8 16 -8.9 42 42 S 7 11 29.98 1015 10 16 N/A
11:52 pm 23:52 Mostly Cloudy 37 2.8 18 -7.8 46 46 S 8 13 29.97 1015 10 16 N/A

Powered by AerisWeather